GW3419 Weather Reports


Display with metric or nautical units.
time (UTC)temp
F
wind
direction
speed
MPH
gust
MPH
rain 1hr
in
rain 24hr
in
rain mn
in
humidity
%
barometer
mb
20260508190033 71 168 3.0 8.0 0.00 0.00 0.00 25 1000.1
20260508185531 71 199 1.0 7.0 0.00 0.00 0.00 25 1000.0
20260508185028 69 207 4.0 8.0 0.00 0.00 0.00 27 1000.0
20260508184526 69 210 3.0 6.0 0.00 0.00 0.00 28 1000.2
20260508184022 71 258 2.0 5.0 0.00 0.00 0.00 25 1000.3
20260508183519 70 242 2.0 10.0 0.00 0.00 0.00 28 1000.3
20260508183015 69 106 0.0 10.0 0.00 0.00 0.00 27 1000.7
20260508182512 68 229 6.0 7.0 0.00 0.00 0.00 28 1000.5
20260508182008 69 324 2.0 11.0 0.00 0.00 0.00 25 1000.6
20260508181503 69 320 3.0 5.0 0.00 0.00 0.00 27 1000.6
20260508181001 70 311 6.0 10.0 0.00 0.00 0.00 25 1000.6
20260508180458 70 207 2.0 7.0 0.00 0.00 0.00 28 1000.7
20260508175954 67 232 2.0 6.0 0.00 0.00 0.00 28 1000.9
20260508175450 67 129 2.0 6.0 0.00 0.00 0.00 28 1001.0
20260508174948 68 323 9.0 14.0 0.00 0.00 0.00 25 1001.0
20260508174446 68 173 2.0 14.0 0.00 0.00 0.00 25 1001.1
20260508173942 68 241 5.0 17.0 0.00 0.00 0.00 25 1001.3
20260508173439 68 217 4.0 6.0 0.00 0.00 0.00 27 1001.0
20260508172935 69 323 6.0 11.0 0.00 0.00 0.00 26 1001.5
20260508172433 67 22 3.0 7.0 0.00 0.00 0.00 32 1001.5
20260508171929 66 225 1.0 7.0 0.00 0.00 0.00 28 1001.6
20260508171425 66 317 3.0 8.0 0.00 0.00 0.00 31 1002.0
20260508170922 66 193 3.0 6.0 0.00 0.00 0.00 29 1001.9
20260508170419 66 153 1.0 8.0 0.00 0.00 0.00 27 1001.8
20260508165916 68 349 2.0 7.0 0.00 0.00 0.00 30 1002.0
20260508165414 66 241 2.0 7.0 0.00 0.00 0.00 33 1002.0
20260508164909 65 248 3.0 6.0 0.00 0.00 0.00 29 1001.9
20260508164407 66 219 2.0 5.0 0.00 0.00 0.00 31 1002.1
20260508163904 66 194 3.0 8.0 0.00 0.00 0.00 30 1002.5
20260508163402 66 274 2.0 6.0 0.00 0.00 0.00 29 1002.4
20260508162857 64 307 5.0 7.0 0.00 0.00 0.00 30 1002.2
20260508162355 64 251 4.0 12.0 0.00 0.00 0.00 33 1002.4
20260508161851 63 235 2.0 6.0 0.00 0.00 0.00 35 1002.5
20260508161349 62 225 2.0 10.0 0.00 0.00 0.00 33 1002.5
20260508160846 62 261 3.0 9.0 0.00 0.00 0.00 33 1002.4
20260508160345 62 219 3.0 11.0 0.00 0.00 0.00 33 1002.5
20260508155840 62 247 4.0 9.0 0.00 0.00 0.00 33 1002.4
20260508155338 62 236 6.0 13.0 0.00 0.00 0.00 34 1002.6
20260508154835 63 264 3.0 10.0 0.00 0.00 0.00 33 1002.7
20260508154332 64 223 6.0 9.0 0.00 0.00 0.00 33 1002.7
20260508153828 62 246 3.0 12.0 0.00 0.00 0.00 34 1002.6
20260508153326 62 239 1.0 9.0 0.00 0.00 0.00 35 1002.7
20260508152821 61 259 3.0 10.0 0.00 0.00 0.00 35 1002.9
20260508152318 62 204 4.0 9.0 0.00 0.00 0.00 35 1003.1
20260508151815 62 227 5.0 11.0 0.00 0.00 0.00 36 1003.2
20260508151312 62 269 1.0 6.0 0.00 0.00 0.00 35 1003.2
20260508150808 61 304 2.0 20.0 0.00 0.00 0.00 35 1003.0
20260508150305 62 251 7.0 11.0 0.00 0.00 0.00 32 1003.0
20260508145802 62 234 3.0 7.0 0.00 0.00 0.00 34 1003.2
20260508145257 62 213 5.0 9.0 0.00 0.00 0.00 34 1003.1
20260508144754 60 228 3.0 6.0 0.00 0.00 0.00 38 1003.3
20260508144252 60 227 3.0 9.0 0.00 0.00 0.00 38 1003.1
20260508143749 60 227 5.0 9.0 0.00 0.00 0.00 35 1003.3
20260508143246 60 235 5.0 11.0 0.00 0.00 0.00 36 1003.4
20260508142743 59 232 4.0 13.0 0.00 0.00 0.00 37 1003.6
20260508142240 59 238 7.0 9.0 0.00 0.00 0.00 36 1003.6
20260508141736 59 214 13.0 13.0 0.00 0.00 0.00 36 1003.5
20260508141234 59 233 4.0 9.0 0.00 0.00 0.00 37 1003.5
20260508140731 58 188 3.0 8.0 0.00 0.00 0.00 38 1003.6
20260508140227 57 210 3.0 8.0 0.00 0.00 0.00 38 1003.5
20260508135724 57 240 5.0 11.0 0.00 0.00 0.00 38 1003.6
20260508135220 56 255 6.0 10.0 0.00 0.00 0.00 37 1003.6
20260508134715 56 218 5.0 9.0 0.00 0.00 0.00 39 1003.7
20260508134213 55 239 6.0 11.0 0.00 0.00 0.00 38 1003.7
20260508133709 55 254 5.0 13.0 0.00 0.00 0.00 39 1003.6
20260508133207 54 224 6.0 10.0 0.00 0.00 0.00 39 1003.6
20260508132705 54 237 4.0 7.0 0.00 0.00 0.00 40 1003.7
20260508132202 54 250 3.0 7.0 0.00 0.00 0.00 42 1003.8
20260508131657 53 219 3.0 10.0 0.00 0.00 0.00 42 1003.6
20260508131154 52 203 9.0 14.0 0.00 0.00 0.00 40 1003.8
20260508130651 53 235 4.0 7.0 0.00 0.00 0.00 42 1003.9
20260508130148 51 232 4.0 11.0 0.00 0.00 0.00 43 1003.9
20260508125643 51 244 3.0 9.0 0.00 0.00 0.00 44 1003.7
20260508125140 51 212 8.0 9.0 0.00 0.00 0.00 43 1003.7
20260508124638 50 219 8.0 8.0 0.00 0.00 0.00 47 1003.7
20260508124135 50 233 6.0 8.0 0.00 0.00 0.00 44 1003.7
20260508123634 49 228 4.0 9.0 0.00 0.00 0.00 45 1003.9
20260508123131 48 231 3.0 10.0 0.00 0.00 0.00 45 1003.7
20260508122627 48 225 9.0 9.0 0.00 0.00 0.00 46 1003.7
20260508122124 47 236 5.0 9.0 0.00 0.00 0.00 46 1003.7
20260508121622 46 226 5.0 10.0 0.00 0.00 0.00 47 1004.0
20260508121120 46 221 7.0 13.0 0.00 0.00 0.00 47 1003.7
20260508120617 45 223 8.0 11.0 0.00 0.00 0.00 48 1003.7
20260508120116 44 208 9.0 11.0 0.00 0.00 0.00 49 1003.6
20260508115613 44 210 5.0 13.0 0.00 0.00 0.00 49 1003.5
20260508115109 44 206 9.0 13.0 0.00 0.00 0.00 50 1003.7
20260508114607 44 213 10.0 15.0 0.00 0.00 0.00 50 1003.6
20260508114102 43 210 8.0 14.0 0.00 0.00 0.00 49 1003.6
20260508113600 43 205 9.0 12.0 0.00 0.00 0.00 49 1003.5
20260508113058 42 204 7.0 9.0 0.00 0.00 0.00 51 1003.5
20260508112553 42 206 6.0 9.0 0.00 0.00 0.00 51 1003.7
20260508112051 42 216 4.0 8.0 0.00 0.00 0.00 52 1003.7
20260508111548 42 215 7.0 9.0 0.00 0.00 0.00 51 1003.6
20260508111045 42 235 3.0 9.0 0.00 0.00 0.00 51 1003.7
20260508110543 42 234 4.0 10.0 0.00 0.00 0.00 51 1003.5
20260508110038 42 236 4.0 7.0 0.00 0.00 0.00 51 1003.7
20260508105533 42 229 7.0 8.0 0.00 0.00 0.00 50 1003.6
20260508105031 42 234 3.0 7.0 0.00 0.00 0.00 50 1003.6
20260508104529 42 230 4.0 8.0 0.00 0.00 0.00 49 1003.6
20260508104025 42 244 4.0 8.0 0.00 0.00 0.00 49 1003.3
20260508103521 42 237 3.0 7.0 0.00 0.00 0.00 50 1003.9
20260508103019 41 206 5.0 8.0 0.00 0.00 0.00 52 1003.5
20260508102517 41 211 5.0 6.0 0.00 0.00 0.00 51 1003.7
20260508102015 41 200 4.0 7.0 0.00 0.00 0.00 51 1003.8
20260508101512 42 206 5.0 7.0 0.00 0.00 0.00 51 1003.8
20260508101008 42 217 4.0 8.0 0.00 0.00 0.00 51 1003.7
20260508100507 42 200 7.0 9.0 0.00 0.00 0.00 49 1003.8
20260508100004 42 210 5.0 12.0 0.00 0.00 0.00 49 1003.7
20260508095501 43 206 6.0 11.0 0.00 0.00 0.00 48 1003.8
20260508094957 43 206 7.0 8.0 0.00 0.00 0.00 48 1003.8
20260508094454 43 202 7.0 10.0 0.00 0.00 0.00 48 1003.8
20260508093951 43 207 11.0 11.0 0.00 0.00 0.00 47 1003.8
20260508093448 43 225 7.0 11.0 0.00 0.00 0.00 47 1003.9
20260508092946 44 213 8.0 13.0 0.00 0.00 0.00 46 1004.1
20260508092443 44 216 14.0 14.0 0.00 0.00 0.00 46 1004.1
20260508091942 44 206 9.0 14.0 0.00 0.00 0.00 46 1003.9
20260508091438 43 207 11.0 12.0 0.00 0.00 0.00 46 1003.9
20260508090935 43 213 9.0 10.0 0.00 0.00 0.00 47 1003.9
20260508090434 43 217 4.0 13.0 0.00 0.00 0.00 47 1004.2
20260508085929 43 212 8.0 11.0 0.00 0.00 0.00 47 1004.1
20260508085426 43 216 9.0 15.0 0.00 0.00 0.00 47 1004.0
20260508084923 42 204 12.0 12.0 0.00 0.00 0.00 48 1004.0
20260508084420 43 202 5.0 11.0 0.00 0.00 0.00 47 1004.2
20260508083918 43 214 8.0 11.0 0.00 0.00 0.00 47 1003.9
20260508083415 43 205 12.0 12.0 0.00 0.00 0.00 47 1004.2
20260508082914 43 203 4.0 11.0 0.00 0.00 0.00 47 1004.2
20260508082412 42 203 6.0 9.0 0.00 0.00 0.00 48 1004.0
20260508081910 42 210 7.0 11.0 0.00 0.00 0.00 48 1004.1
20260508081407 42 200 6.0 11.0 0.00 0.00 0.00 48 1004.3
20260508080903 42 198 6.0 10.0 0.00 0.00 0.00 48 1004.3
20260508080401 42 209 5.0 9.0 0.00 0.00 0.00 48 1004.1
20260508075857 42 206 5.0 8.0 0.00 0.00 0.00 49 1004.3
20260508075355 42 202 5.0 9.0 0.00 0.00 0.00 49 1004.2
20260508074852 42 210 6.0 9.0 0.00 0.00 0.00 48 1004.4
20260508074349 42 214 6.0 9.0 0.00 0.00 0.00 48 1004.2
20260508073846 41 205 4.0 7.0 0.00 0.00 0.00 49 1004.4
20260508073344 41 210 6.0 7.0 0.00 0.00 0.00 49 1004.4
20260508072840 42 203 5.0 7.0 0.00 0.00 0.00 48 1004.4
20260508072337 42 210 7.0 9.0 0.00 0.00 0.00 48 1004.6
20260508071834 42 201 5.0 8.0 0.00 0.00 0.00 48 1004.5
20260508071333 42 205 7.0 8.0 0.00 0.00 0.00 48 1004.6
20260508070830 42 204 6.0 9.0 0.00 0.00 0.00 48 1004.7
20260508070328 42 211 6.0 9.0 0.00 0.00 0.00 48 1004.7
20260508065825 42 205 7.0 9.0 0.00 0.00 0.00 47 1004.8
20260508065323 42 204 6.0 9.0 0.00 0.00 0.00 47 1004.6
20260508064821 42 207 5.0 9.0 0.00 0.00 0.00 47 1004.7
20260508064318 42 206 7.0 9.0 0.00 0.00 0.00 48 1004.8
20260508063816 42 199 7.0 9.0 0.00 0.00 0.00 48 1004.8
20260508063314 42 216 6.0 8.0 0.00 0.00 0.00 48 1004.8
20260508062810 42 225 5.0 9.0 0.00 0.00 0.00 48 1004.6
20260508062308 42 215 6.0 9.0 0.00 0.00 0.00 47 1004.9
20260508061804 43 219 7.0 9.0 0.00 0.00 0.00 48 1004.9
20260508061302 43 215 5.0 9.0 0.00 0.00 0.00 46 1005.0
20260508060758 43 205 7.0 9.0 0.00 0.00 0.00 47 1004.9
20260508060256 42 214 5.0 10.0 0.00 0.00 0.00 47 1005.1
20260508055751 42 205 6.0 8.0 0.00 0.00 0.00 48 1005.1
20260508055249 42 202 7.0 9.0 0.00 0.00 0.00 48 1005.1
20260508054745 42 203 5.0 8.0 0.00 0.00 0.00 48 1005.1
20260508054243 42 203 6.0 9.0 0.00 0.00 0.00 48 1005.0
20260508053740 42 200 7.0 9.0 0.00 0.00 0.00 48 1005.1
20260508053237 42 214 6.0 9.0 0.00 0.00 0.00 48 1005.4
20260508052734 42 202 5.0 9.0 0.00 0.00 0.00 49 1005.4
20260508052232 42 205 7.0 9.0 0.00 0.00 0.00 49 1005.4
20260508051727 43 210 8.0 10.0 0.00 0.00 0.00 47 1005.6
20260508051223 43 208 8.0 9.0 0.00 0.00 0.00 47 1005.4
20260508050720 43 206 6.0 8.0 0.00 0.00 0.00 46 1005.2
20260508050217 43 207 6.0 8.0 0.00 0.00 0.00 46 1005.4
20260508045712 43 202 6.0 6.0 0.00 0.00 0.00 46 1005.5
20260508045211 42 205 4.0 5.0 0.00 0.00 0.00 47 1005.5
20260508044708 43 207 4.0 6.0 0.00 0.00 0.00 46 1005.4
20260508044204 43 208 5.0 6.0 0.00 0.00 0.00 46 1005.7
20260508043700 43 206 5.0 6.0 0.00 0.00 0.00 46 1005.5
20260508043158 44 204 4.0 6.0 0.00 0.00 0.00 45 1005.7
20260508042654 44 215 6.0 7.0 0.00 0.00 0.00 44 1005.6
20260508042152 44 221 4.0 6.0 0.00 0.00 0.00 44 1005.7
20260508041648 44 212 5.0 5.0 0.00 0.00 0.00 44 1005.6
20260508041145 43 218 3.0 6.0 0.00 0.00 0.00 46 1005.6
20260508040641 43 203 3.0 4.0 0.00 0.00 0.00 47 1005.6
20260508040139 43 203 3.0 4.0 0.00 0.00 0.00 47 1005.6
20260508035636 43 197 2.0 4.0 0.00 0.00 0.00 47 1005.7
20260508035133 43 197 2.0 4.0 0.00 0.00 0.00 46 1005.8
20260508034630 44 200 3.0 4.0 0.00 0.00 0.00 45 1005.7
20260508034127 44 207 4.0 7.0 0.00 0.00 0.00 43 1005.9
20260508033624 45 212 6.0 7.0 0.00 0.00 0.00 42 1005.7
20260508033123 45 207 3.0 4.0 0.00 0.00 0.00 43 1005.4
20260508032619 45 220 2.0 5.0 0.00 0.00 0.00 43 1005.6
20260508032116 44 236 2.0 3.0 0.00 0.00 0.00 47 1005.6
20260508031613 44 219 2.0 3.0 0.00 0.00 0.00 46 1005.7
20260508031109 44 238 1.0 2.0 0.00 0.00 0.00 46 1005.6
20260508030606 44 221 0.0 2.0 0.00 0.00 0.00 47 1005.4
20260508030104 44 217 2.0 2.0 0.00 0.00 0.00 46 1005.6
20260508025600 43 236 0.0 2.0 0.00 0.00 0.00 48 1005.6
20260508025057 43 224 0.0 1.0 0.00 0.00 0.00 47 1005.5
20260508024553 44 119 0.0 1.0 0.00 0.00 0.00 46 1005.5
20260508024050 44 233 1.0 2.0 0.00 0.00 0.00 46 1005.6
20260508023546 44 221 1.0 2.0 0.00 0.00 0.00 48 1005.5
20260508023044 44 222 0.0 2.0 0.00 0.00 0.00 46 1005.6
20260508022540 45 262 0.0 2.0 0.00 0.00 0.00 45 1005.2
20260508022037 46 239 0.0 2.0 0.00 0.00 0.00 43 1005.6
20260508021532 44 102 0.0 2.0 0.00 0.00 0.00 43 1005.4
20260508021028 45 243 0.0 1.0 0.00 0.00 0.00 45 1005.4
20260508020526 45 263 1.0 1.0 0.00 0.00 0.00 42 1005.1
20260508020024 46 304 0.0 1.0 0.00 0.00 0.00 41 1005.0
20260508015521 47 275 0.0 2.0 0.00 0.00 0.00 40 1005.4
20260508015018 47 234 1.0 2.0 0.00 0.00 0.00 39 1005.1
20260508014514 48 245 0.0 3.0 0.00 0.00 0.00 38 1005.0
20260508014011 48 255 2.0 3.0 0.00 0.00 0.00 38 1004.9
20260508013507 48 228 0.0 2.0 0.00 0.00 0.00 38 1005.1
20260508013004 49 304 0.0 2.0 0.00 0.00 0.00 38 1004.8
20260508012455 50 304 0.0 3.0 0.00 0.00 0.00 35 1004.9
20260508011953 49 10 0.0 2.0 0.00 0.00 0.00 36 1004.9
20260508011451 49 9 0.0 2.0 0.00 0.00 0.00 35 1004.9
20260508010948 50 346 1.0 2.0 0.00 0.00 0.00 35 1004.9
20260508010445 50 288 1.0 3.0 0.00 0.00 0.00 35 1004.9
20260508005942 51 252 0.0 1.0 0.00 0.00 0.00 34 1004.9
20260508005439 52 327 1.0 3.0 0.00 0.00 0.00 33 1004.7
20260508004935 52 318 1.0 6.0 0.00 0.00 0.00 32 1004.7
20260508004431 53 327 0.0 4.0 0.00 0.00 0.00 31 1004.9
20260508003928 53 315 0.0 5.0 0.00 0.00 0.00 31 1005.0
20260508003425 53 337 2.0 6.0 0.00 0.00 0.00 30 1004.9
20260508002922 53 328 3.0 5.0 0.00 0.00 0.00 30 1004.8
20260508002419 54 346 3.0 7.0 0.00 0.00 0.00 30 1004.9
20260508001915 55 336 2.0 12.0 0.00 0.00 0.00 29 1004.9
20260508001411 55 7 2.0 7.0 0.00 0.00 0.00 30 1004.6
20260508000908 54 340 2.0 8.0 0.00 0.00 0.00 29 1005.0
20260508000405 54 292 3.0 13.0 0.00 0.00 0.00 29 1005.0
20260507235900 54 299 4.0 10.0 0.00 0.00 0.00 28 1005.0
20260507235358 55 311 5.0 9.0 0.00 0.00 0.00 28 1005.1
20260507234855 55 321 1.0 7.0 0.00 0.00 0.00 29 1005.0
20260507234351 55 327 6.0 9.0 0.00 0.00 0.00 29 1005.2
20260507233848 55 345 1.0 9.0 0.00 0.00 0.00 28 1005.0
20260507233345 55 125 1.0 10.0 0.00 0.00 0.00 29 1005.1
20260507232843 55 315 10.0 17.0 0.00 0.00 0.00 27 1004.9
20260507232340 57 271 5.0 20.0 0.00 0.00 0.00 26 1004.9
20260507231837 57 338 7.0 7.0 0.00 0.00 0.00 26 1004.8
20260507231333 56 337 5.0 12.0 0.00 0.00 0.00 27 1004.8
20260507230829 57 8 6.0 10.0 0.00 0.00 0.00 26 1005.0
20260507230322 57 353 6.0 15.0 0.00 0.00 0.00 26 1004.7
20260507225821 57 287 2.0 9.0 0.00 0.00 0.00 26 1005.0
20260507225317 57 132 2.0 15.0 0.00 0.00 0.00 25 1004.9
20260507224814 57 321 4.0 18.0 0.00 0.00 0.00 26 1005.0
20260507224311 58 170 2.0 14.0 0.00 0.00 0.00 26 1005.1
20260507223807 57 214 5.0 15.0 0.00 0.00 0.00 25 1005.4
20260507223303 58 239 2.0 12.0 0.00 0.00 0.00 25 1005.1
20260507222801 58 195 2.0 5.0 0.00 0.00 0.00 26 1004.9
20260507222256 57 222 3.0 12.0 0.00 0.00 0.00 26 1005.1
20260507221754 58 190 2.0 11.0 0.00 0.00 0.00 26 1005.0
20260507221250 58 15 3.0 8.0 0.00 0.00 0.00 26 1004.8
20260507220746 58 318 6.0 9.0 0.00 0.00 0.00 25 1005.0
20260507220245 58 4 5.0 8.0 0.00 0.00 0.00 26 1005.2
20260507215741 58 240 5.0 10.0 0.00 0.00 0.00 26 1005.1
20260507215238 57 298 6.0 21.0 0.00 0.00 0.00 27 1004.9
20260507214735 57 78 0.0 9.0 0.00 0.00 0.00 27 1004.9
20260507214233 57 0 2.0 14.0 0.00 0.00 0.00 28 1005.1
20260507213727 58 336 4.0 13.0 0.00 0.00 0.00 25 1005.1
20260507213225 57 228 1.0 9.0 0.00 0.00 0.00 25 1004.9
20260507212721 58 288 6.0 12.0 0.00 0.00 0.00 26 1005.2
20260507212218 57 345 4.0 9.0 0.00 0.00 0.00 26 1005.1
20260507211715 56 29 2.0 9.0 0.00 0.00 0.00 28 1005.0
20260507211210 57 154 2.0 12.0 0.00 0.00 0.00 26 1005.0
20260507210708 58 298 3.0 10.0 0.00 0.00 0.00 27 1005.1
20260507210205 56 30 8.0 12.0 0.00 0.00 0.00 28 1005.1
20260507205701 57 339 4.0 11.0 0.00 0.00 0.00 27 1005.1
20260507205158 57 291 4.0 10.0 0.00 0.00 0.00 29 1005.2
20260507204654 57 293 5.0 12.0 0.00 0.00 0.00 28 1005.1
20260507204152 57 317 16.0 19.0 0.00 0.00 0.00 27 1005.5
20260507203650 57 332 1.0 16.0 0.00 0.00 0.00 30 1005.5
20260507203147 56 253 5.0 13.0 0.00 0.00 0.00 29 1005.4
20260507202642 56 1 7.0 15.0 0.00 0.00 0.00 29 1005.5
20260507202139 56 207 3.0 15.0 0.00 0.00 0.00 28 1005.6
20260507201634 55 67 1.0 13.0 0.00 0.00 0.00 29 1005.2
20260507201131 56 334 4.0 15.0 0.00 0.00 0.00 28 1005.6
20260507200627 55 357 6.0 18.0 0.00 0.00 0.00 29 1005.5
20260507200123 57 353 4.0 10.0 0.00 0.00 0.00 28 1005.7
20260507195620 54 30 6.0 13.0 0.00 0.00 0.00 29 1005.7
20260507195117 57 302 10.0 16.0 0.00 0.00 0.00 28 1005.8
20260507194614 56 144 3.0 17.0 0.00 0.00 0.00 30 1005.9
20260507194109 57 122 2.0 4.0 0.00 0.00 0.00 28 1005.8
20260507193607 56 10 4.0 15.0 0.00 0.00 0.00 30 1006.0
20260507193104 56 248 3.0 14.0 0.00 0.00 0.00 28 1005.9
20260507192600 55 346 4.0 18.0 0.00 0.00 0.00 29 1005.9
20260507192057 55 15 15.0 15.0 0.00 0.00 0.00 31 1005.9
20260507191552 55 230 7.0 11.0 0.00 0.00 0.00 30 1005.8
20260507191050 55 336 4.0 14.0 0.00 0.00 0.00 29 1006.0
20260507190547 54 19 6.0 18.0 0.00 0.00 0.00 29 1006.1